Flag for Brazil Weather past 2 weeks in Santarém, Para, Brazil

Now
75 °F

Passing clouds.


Feels Like: 73 °F
Forecast: 77 / 94 °F
Wind: No wind

Location: Santarem-Aeroporto

Current Time: Sep 16, 2014 at 5:16:01 AM

Latest Report: Sep 16, 2014 at 5:00 AM


Visibility: N/A

Pressure: 29.86 "Hg

Humidity: 100%

Dew point: 75 °F

Location of SantarémLocation

Historic Weather in Santarém — Graph

°F

Santarém temperature yesterday

Maximum temperature yesterday: 91 °F (at 2:00 PM)
Minimum temperature yesterday: 77 °F (at 9:00 PM)
Average temperature yesterday: 84 °F

Past Weeks' High & Low Weather Summary

 TemperatureHumidityPressure
High91 °F (Sep 4, 4:00 PM)100% (Sep 1, 6:00 AM)29.98 "Hg (Sep 1, 6:00 AM)
Low72 °F (Sep 4, 3:00 AM)49% (Sep 4, 4:00 PM)29.71 "Hg (Sep 11, 5:00 PM)
Average82 °F78%29.86 "Hg
* Reported Sep 1 4:00 AM — Sep 16 4:00 AM, Santarém, Weather by CustomWeather, © 2014

Note: Actual official high and low records may vary slightly from our data, if they occured in-between our weather recording intervals... More about our weather records

Advertising

Santarém weather history for previous 24 hours

 ConditionsComfort  
Time TempWeatherWind HumidityBarometerVisibility
4:00 AM
Sep 16
75 °FClear.No wind100%29.86 "Hg10 mi
3:00 AM75 °FClear.No wind94%29.86 "Hg10 mi
2:00 AM75 °FClear.No wind94%29.86 "Hg10 mi
1:00 AM75 °FClear.No wind94%29.89 "Hg10 mi
12:00 AM75 °FClear.No wind94%29.89 "Hg10 mi
11:00 PM
Sep 15
77 °FClear.No wind89%29.89 "Hg10 mi
10:00 PM77 °FClear.No wind89%29.89 "Hg10 mi
9:00 PM77 °FClear.2 mph89%29.86 "Hg10 mi
8:00 PM82 °FThundershowers. Passing clouds.2 mph74%29.83 "HgN/A
7:00 PM84 °FPassing clouds.3 mph74%29.80 "HgN/A
6:00 PM88 °FPassing clouds.9 mph62%29.80 "HgN/A
5:00 PM90 °FPassing clouds.12 mph59%29.80 "HgN/A
4:00 PM90 °FPassing clouds.9 mph59%29.80 "HgN/A
3:00 PM91 °FPassing clouds.14 mph56%29.83 "HgN/A
2:00 PM91 °FScattered clouds.12 mph56%29.86 "HgN/A
1:00 PM90 °FScattered clouds.15 mph63%29.89 "HgN/A
12:00 PM90 °FScattered clouds.16 mph63%29.92 "HgN/A
11:00 AM88 °FScattered clouds.8 mph66%29.95 "HgN/A
10:00 AM86 °FScattered clouds.12 mph70%29.95 "HgN/A
9:00 AM84 °FPassing clouds.14 mph79%29.92 "HgN/A
8:00 AM82 °FPassing clouds.14 mph79%29.89 "HgN/A
7:00 AM81 °FPassing clouds.15 mph79%29.89 "HgN/A
6:00 AM81 °FPassing clouds.14 mph84%29.86 "HgN/A
5:00 AM82 °FPassing clouds.15 mph84%29.86 "HgN/A
Weather by CustomWeather, © 2014

See weather overviewHow to use our weather pages